Tracking 28799 objects as of 18-Apr-2024
HD Live streaming from Space Station
objects crossing your sky now

CZ-4 DEB

Track CZ-4 DEB now!
10-day predictions


NORAD ID: 26152
Int'l Code: 1999-057AN
Perigee: 732.8 km
Apogee: 1,522.6 km
Inclination: 99.2 °
Period: 107.7 minutes
Semi major axis: 7498 km
RCS: 0.0141 m2 (small)
Launch date: October 14, 1999
Source: People's Republic of China (PRC)
Launch site: Taiyaun Space Center, China (TSC)

Note: This is SATELLITE DEBRIS
Your satellite tracking list
Your tracking list is empty




NASA's NSSDC Master Catalog

Two Line Element Set (TLE):
1 26152U 99057AN  24108.75090365  .00001821  00000-0  16023-2 0  9992
2 26152  99.2078 179.9790 0526595 115.5688  12.4341 13.36978052172404
Source of the keplerian elements: AFSPC